TimeMDT,TemperatureF,Dew PointF,Humidity,Sea Level PressureIn,VisibilityMPH,Wind Direction,Wind SpeedMPH,Gust SpeedMPH,PrecipitationIn,Events,Conditions,WindDirDegrees,DateUTC
12:13 AM,33.8,23.0,65,30.37,-9999.0,West,11.5,-,N/A,,Mostly Cloudy,270,2013-05-22 06:13:00
12:33 AM,33.8,23.0,65,30.37,-9999.0,WSW,13.8,-,N/A,,Mostly Cloudy,240,2013-05-22 06:33:00
12:53 AM,33.8,23.0,65,30.36,-9999.0,WSW,17.3,-,N/A,,Overcast,240,2013-05-22 06:53:00
1:13 AM,33.8,23.0,65,30.35,-9999.0,WSW,21.9,-,N/A,,Overcast,240,2013-05-22 07:13:00
1:33 AM,33.8,23.0,65,30.35,-9999.0,WSW,20.7,-,N/A,,Scattered Clouds,250,2013-05-22 07:33:00
1:53 AM,33.8,21.2,60,30.35,-9999.0,WSW,19.6,-,N/A,,Clear,240,2013-05-22 07:53:00
2:13 AM,33.8,21.2,60,30.34,-9999.0,WSW,18.4,-,N/A,,Clear,250,2013-05-22 08:13:00
2:33 AM,33.8,21.2,60,30.34,-9999.0,WSW,20.7,-,N/A,,Clear,250,2013-05-22 08:33:00
2:53 AM,33.8,21.2,60,30.33,-9999.0,WSW,17.3,23.0,N/A,,Clear,250,2013-05-22 08:53:00
3:13 AM,33.8,21.2,60,30.33,-9999.0,West,19.6,-,N/A,,Clear,260,2013-05-22 09:13:00
3:33 AM,32.0,23.0,69,30.33,-9999.0,West,18.4,-,N/A,,Clear,260,2013-05-22 09:33:00
3:53 AM,32.0,23.0,69,30.33,-9999.0,West,17.3,-,N/A,,Clear,270,2013-05-22 09:53:00
4:13 AM,32.0,23.0,69,30.33,-9999.0,West,15.0,-,N/A,,Clear,270,2013-05-22 10:13:00
4:33 AM,32.0,23.0,69,30.33,-9999.0,West,17.3,-,N/A,,Clear,270,2013-05-22 10:33:00
4:53 AM,32.0,23.0,69,30.33,-9999.0,West,17.3,-,N/A,,Clear,270,2013-05-22 10:53:00
5:13 AM,32.0,24.8,75,30.33,-9999.0,West,18.4,-,N/A,,Clear,270,2013-05-22 11:13:00
5:33 AM,32.0,24.8,75,30.33,-9999.0,West,15.0,-,N/A,,Clear,270,2013-05-22 11:33:00
5:53 AM,32.0,24.8,75,30.33,-9999.0,West,13.8,-,N/A,,Clear,270,2013-05-22 11:53:00
6:13 AM,33.8,24.8,70,30.34,-9999.0,West,12.7,-,N/A,,Scattered Clouds,270,2013-05-22 12:13:00
6:33 AM,33.8,24.8,70,30.34,-9999.0,West,11.5,-,N/A,,Scattered Clouds,260,2013-05-22 12:33:00
6:53 AM,33.8,24.8,70,30.35,-9999.0,West,11.5,-,N/A,,Clear,270,2013-05-22 12:53:00
7:13 AM,33.8,23.0,65,30.35,-9999.0,West,13.8,-,N/A,,Clear,270,2013-05-22 13:13:00
7:33 AM,33.8,23.0,65,30.36,-9999.0,West,13.8,-,N/A,,Clear,270,2013-05-22 13:33:00
7:53 AM,35.6,23.0,60,30.36,-9999.0,West,13.8,-,N/A,,Clear,260,2013-05-22 13:53:00
8:13 AM,35.6,23.0,60,30.38,-9999.0,WSW,10.4,-,N/A,,Clear,250,2013-05-22 14:13:00
8:33 AM,37.4,23.0,56,30.38,-9999.0,West,10.4,-,N/A,,Clear,260,2013-05-22 14:33:00
8:53 AM,37.4,21.2,52,30.38,-9999.0,WSW,15.0,-,N/A,,Clear,240,2013-05-22 14:53:00
9:13 AM,39.2,23.0,52,30.38,-9999.0,WSW,11.5,17.3,N/A,,Clear,240,2013-05-22 15:13:00
9:33 AM,39.2,23.0,52,30.38,-9999.0,WSW,12.7,19.6,N/A,,Clear,250,2013-05-22 15:33:00
9:53 AM,41.0,23.0,49,30.38,-9999.0,SW,18.4,23.0,N/A,,Clear,230,2013-05-22 15:53:00
10:13 AM,41.0,21.2,45,30.38,-9999.0,West,16.1,26.5,N/A,,Clear,270,2013-05-22 16:13:00
10:33 AM,41.0,21.2,45,30.38,-9999.0,West,11.5,15.0,N/A,,Clear,270,2013-05-22 16:33:00
10:53 AM,42.8,21.2,42,30.38,-9999.0,West,15.0,21.9,N/A,,Clear,260,2013-05-22 16:53:00
11:13 AM,42.8,21.2,42,30.38,-9999.0,WSW,19.6,25.3,N/A,,Clear,240,2013-05-22 17:13:00
11:33 AM,44.6,21.2,39,30.38,-9999.0,West,17.3,26.5,N/A,,Clear,260,2013-05-22 17:33:00
11:53 AM,44.6,21.2,39,30.38,-9999.0,West,15.0,20.7,N/A,,Clear,280,2013-05-22 17:53:00
12:13 PM,44.6,21.2,39,30.38,-9999.0,West,12.7,-,N/A,,Clear,260,2013-05-22 18:13:00
12:33 PM,46.4,21.2,37,30.38,-9999.0,SSW,13.8,28.8,N/A,,Clear,210,2013-05-22 18:33:00
12:53 PM,48.2,23.0,37,30.38,-9999.0,SW,11.5,21.9,N/A,,Scattered Clouds,230,2013-05-22 18:53:00
1:13 PM,48.2,23.0,37,30.37,-9999.0,SSW,10.4,18.4,N/A,,Mostly Cloudy,200,2013-05-22 19:13:00
1:33 PM,48.2,21.2,34,30.37,-9999.0,South,10.4,17.3,N/A,,Mostly Cloudy,190,2013-05-22 19:33:00
1:53 PM,50.0,21.2,32,30.37,-9999.0,SSW,13.8,24.2,N/A,,Mostly Cloudy,200,2013-05-22 19:53:00
2:13 PM,48.2,21.2,34,30.37,-9999.0,South,10.4,19.6,N/A,,Mostly Cloudy,190,2013-05-22 20:13:00
2:33 PM,50.0,23.0,35,30.36,-9999.0,SSW,19.6,26.5,N/A,,Overcast,210,2013-05-22 20:33:00
2:53 PM,50.0,23.0,35,30.37,-9999.0,SSW,18.4,27.6,N/A,,Overcast,200,2013-05-22 20:53:00
3:13 PM,50.0,23.0,35,30.36,-9999.0,SSW,20.7,29.9,N/A,,Mostly Cloudy,200,2013-05-22 21:13:00
3:33 PM,50.0,21.2,32,30.36,-9999.0,SW,17.3,24.2,N/A,,Scattered Clouds,230,2013-05-22 21:33:00
3:53 PM,46.4,24.8,43,30.37,-9999.0,SSW,20.7,36.8,N/A,,Mostly Cloudy,200,2013-05-22 21:53:00
4:13 PM,44.6,26.6,49,30.37,-9999.0,SSE,3.5,28.8,N/A,,Overcast,150,2013-05-22 22:13:00
4:33 PM,44.6,24.8,46,30.37,-9999.0,South,6.9,-,N/A,,Overcast,190,2013-05-22 22:33:00
4:53 PM,44.6,26.6,49,30.38,-9999.0,Calm,Calm,-,N/A,,Overcast,0,2013-05-22 22:53:00
5:13 PM,44.6,26.6,49,30.37,-9999.0,SW,19.6,24.2,N/A,,Overcast,230,2013-05-22 23:13:00
5:33 PM,44.6,26.6,49,30.38,-9999.0,West,8.1,-,N/A,,Overcast,270,2013-05-22 23:33:00
5:53 PM,44.6,26.6,49,30.38,-9999.0,SW,18.4,25.3,N/A,,Mostly Cloudy,230,2013-05-22 23:53:00
6:13 PM,42.8,24.8,49,30.38,-9999.0,West,19.6,33.4,N/A,Thunderstorm,Thunderstorm,260,2013-05-23 00:13:00
6:33 PM,41.0,23.0,49,30.39,-9999.0,West,11.5,18.4,N/A,,Overcast,260,2013-05-23 00:33:00
6:53 PM,46.4,19.4,34,30.38,-9999.0,West,4.6,-,N/A,,Overcast,270,2013-05-23 00:53:00
7:13 PM,46.4,23.0,40,30.39,-9999.0,SSW,10.4,-,N/A,,Overcast,210,2013-05-23 01:13:00
7:33 PM,46.4,23.0,40,30.40,-9999.0,South,6.9,-,N/A,,Mostly Cloudy,190,2013-05-23 01:33:00
7:53 PM,44.6,23.0,43,30.40,-9999.0,SSW,10.4,-,N/A,,Overcast,200,2013-05-23 01:53:00
8:13 PM,44.6,19.4,37,30.41,-9999.0,SW,16.1,-,N/A,,Overcast,230,2013-05-23 02:13:00
8:33 PM,42.8,21.2,42,30.42,-9999.0,SW,9.2,-,N/A,,Overcast,230,2013-05-23 02:33:00
8:53 PM,44.6,19.4,37,30.43,-9999.0,WSW,19.6,25.3,N/A,,Overcast,240,2013-05-23 02:53:00
9:13 PM,42.8,21.2,42,30.44,-9999.0,SE,5.8,-,N/A,,Overcast,130,2013-05-23 03:13:00
9:33 PM,42.8,24.8,49,30.43,-9999.0,East,16.1,-,N/A,,Overcast,80,2013-05-23 03:33:00
9:53 PM,41.0,24.8,53,30.44,-9999.0,East,13.8,-,N/A,,Mostly Cloudy,80,2013-05-23 03:53:00
10:13 PM,41.0,26.6,57,30.44,-9999.0,ENE,16.1,-,N/A,,Scattered Clouds,70,2013-05-23 04:13:00
10:33 PM,39.2,26.6,61,30.45,-9999.0,East,15.0,-,N/A,,Clear,80,2013-05-23 04:33:00
10:53 PM,39.2,26.6,61,30.45,-9999.0,ENE,16.1,-,N/A,,Scattered Clouds,60,2013-05-23 04:53:00
11:13 PM,39.2,26.6,61,30.45,-9999.0,ENE,16.1,-,N/A,,Scattered Clouds,70,2013-05-23 05:13:00
11:33 PM,39.2,26.6,61,30.45,-9999.0,ENE,15.0,-,N/A,,Mostly Cloudy,60,2013-05-23 05:33:00
11:53 PM,37.4,26.6,65,30.45,-9999.0,ENE,16.1,-,N/A,,Mostly Cloudy,60,2013-05-23 05:53:00